NWS Melbourne » East Central Florida Hourly Weather Roundup

ASUS42 KMLB 020911
RWRMLB
HOURLY WEATHER ROUNDUP AROUND FLORIDA
NATIONAL WEATHER SERVICE OFFICE MELBOURNE FL
500 AM EDT THU APR 02 2015
  
CITY           SKY/WX    TMP DP  RH WIND       PRES   REMARKS
MELBOURNE      CLEAR     62  60  93 CALM      30.12F                  
FORT PIERCE    CLEAR     65  61  87 CALM      30.13S                  
ORLANDO INTL   PTCLDY    66  64  93 NW5       30.13F                  
DAYTONA BEACH  MOCLDY    65  64  97 N3        30.14S                  
VERO BEACH     CLEAR     62  59  90 NW3       30.13S                  
$$
...ELSEWHERE ACROSS CENTRAL FLORIDA...
  
CITY           SKY/WX    TMP DP  RH WIND       PRES   REMARKS
PATRICK AFB    CLEAR     68  64  88 NW6       30.12S                  
KSC            CLEAR     63  61  94 W2        30.11S                  
CAPE CANAVERAL CLEAR     64  63  94 CALM      30.11S                  
ORLANDO EXEC   CLEAR     67  63  87 N5        30.13S                  
LEESBURG       PTCLDY    66  64  93 N6        30.14S                  
THE VILLAGES     N/A     64  64 100 CALM      30.04S                  
SANFORD        CLEAR     65  63  93 N5        30.13F                  
DELAND           N/A    N/A N/A N/A N3        30.14S                  
WINTER HAVEN   PTCLDY    64  62  93 W5        30.15S                  
OKEECHOBEE     CLEAR     63  61  94 N8        30.13F                  
TAMPA          MOCLDY    66  62  87 CALM      30.14F                  
$$
...NORTHERN FLORIDA...
  
CITY           SKY/WX    TMP DP  RH WIND       PRES   REMARKS
PALM COAST     SUNNY     62  61  98 N3        30.14S                  
ST AUGUSTINE   MOCLDY    64  63  96 N7        30.16S                  
OCALA            N/A     61  57  88 CALM      30.14F VSB 1/2          
GAINESVILLE    PTCLDY    60  59  96 CALM      30.15S                  
JACKSONVILLE   FOG       56  55  97 NE3       30.15F VSB 1            
TALLAHASSEE    CLOUDY    63  60  90 CALM      30.12S                  
$$
...ALONG THE SOUTHEAST COAST TO THE KEYS...
  
CITY           SKY/WX    TMP DP  RH WIND       PRES   REMARKS
STUART         CLEAR     63  61  94 NW3       30.13S                  
WEST PALM BCH  PTCLDY    66  62  87 SW6       30.11S                  
MIAMI          CLEAR     69  63  81 NW3       30.13F                  
KEY WEST       PTCLDY    73  62  68 E5        30.11S                  
$$
...MARINE REPORTS...
  
STATION/POSITION TIME  TEMP    WIND        PRES    WAVE   SWELL
                       AIR SEA DIR/SP/G            HT/PER HT/PER/DIR
                 (UTC) (F)     (DEG/KT/KT) (MB)    (FT/S) (FT/S/D)
ST AUGUSTINE FP  0900   64 63  360/  8/  9 1021.5F
20NM E CAPE CANA 0820   70 71  270/  8/ 10 1019.8F
120 E NEW SMYRNA 0820   72 75   60/  2/  2 1020.5S
TRIDENT PIER     0800   68 73  300/  5/  7 1020.4F
SEBASTIAN INLET  0900   68     320/  7     1021.0S
4NM E PORT CANAV 0809      71                N/A     1/10
6NM NE FPR INLET 0851      76                N/A     1/10
SETTLEMENT PT GB 0900   74     210/  6/  7 1020.6R
$$
 


USA.gov is the U.S. government's official web portal to all federal, state and local government web resources and services.